Whiteville, NC

10:41 AM EDT on May 25, 2017 (GMT -0400)
Columbus County Municipal

Weather History for KCPC - March, 2013

Change the Weather History Date:

Friday, March 22, 2013

  Actual Average (KCRE) Record (KCRE)
Temperature  
Mean Temperature 40 °F -  
Max Temperature 52 °F 62 °F 86 °F (1995)
Min Temperature 29 °F 45 °F 26 °F (1956)
Degree Days  
Heating Degree Days 24    
Moisture  
Dew Point 17 °F    
Average Humidity 42    
Maximum Humidity 78    
Minimum Humidity 26    
Precipitation  
Precipitation 0.00 in - - ()
Sea Level Pressure  
Sea Level Pressure 30.04 in    
Wind  
Wind Speed 3 mph (West)    
Max Wind Speed 8 mph    
Max Gust Speed -    
Visibility 10 miles    
Events      
Averages and records for this station are not official NWS values.
T = Trace of Precipitation, MM = Missing Value Source: NWS Daily Summary

Daily Weather History Graph

Daily Weather History Graph

Search for Another Location

Airport or City:

Trip Planner

Search our weather history database for the weather conditions in past years. The results will help you decide how hot, cold, wet, or windy it might be!

Date:

Astronomy

Mar. 22, 2013 Rise Set
Actual Time 7:15 AM EDT 7:28 PM EDT
Civil Twilight 6:50 AM EDT 7:53 PM EDT
Nautical Twilight 6:21 AM EDT 8:22 PM EDT
Astronomical Twilight 5:51 AM EDT 8:52 PM EDT
Moon 3:04 PM EDT (3/22) 4:03 AM EDT (3/22)
Length of Visible Light 13h 02m
Length of Day
12h 12m
Waxing Gibbous, 77% of the Moon is Illuminated
Mar 22
Waxing Gibbous
Mar 27
Full
Apr 3
Last Quarter
Apr 10
New
Apr 18
First Quarter

Hourly Weather History & Observations

Time (EDT) Temp. Windchill Dew Point Humidity Pressure Visibility Wind Dir Wind Speed Gust Speed Precip Events Conditions
12:15 AM 36.7 °F 32.9 °F 13.1 °F 38% 29.97 in 10.0 mi NNE 4.6 mph - N/A   Clear
12:35 AM 36.0 °F 31.1 °F 12.7 °F 38% 29.98 in 10.0 mi North 5.8 mph - N/A   Clear
12:55 AM 35.8 °F 30.9 °F 11.7 °F 37% 29.98 in 10.0 mi North 5.8 mph - N/A   Clear
1:15 AM 34.7 °F 30.6 °F 12.2 °F 39% 29.99 in 10.0 mi North 4.6 mph - N/A   Clear
1:35 AM 34.2 °F - 12.6 °F 41% 30.00 in 10.0 mi Calm Calm - N/A   Clear
1:55 AM 33.4 °F - 12.9 °F 43% 30.00 in 10.0 mi Calm Calm - N/A   Clear
2:15 AM 33.3 °F - 13.3 °F 44% 30.01 in 10.0 mi Calm Calm - N/A   Clear
2:35 AM 32.5 °F - 13.6 °F 46% 30.01 in 10.0 mi Calm Calm - N/A   Clear
2:55 AM 32.2 °F - 14.9 °F 49% 30.01 in 10.0 mi Calm Calm - N/A   Clear
3:15 AM 32.0 °F 28.7 °F 13.1 °F 46% 30.01 in 10.0 mi North 3.5 mph - N/A   Clear
3:35 AM 32.0 °F - 12.6 °F 45% 30.01 in 10.0 mi Calm Calm - N/A   Clear
3:55 AM 32.0 °F 28.7 °F 12.0 °F 44% 30.01 in 10.0 mi North 3.5 mph - N/A   Clear
4:15 AM 32.0 °F 28.7 °F 12.2 °F 44% 30.01 in 10.0 mi North 3.5 mph - N/A   Clear
4:35 AM 31.6 °F 27.0 °F 12.2 °F 45% 30.01 in 10.0 mi North 4.6 mph - N/A   Clear
4:55 AM 31.8 °F 27.3 °F 12.2 °F 44% 30.02 in 10.0 mi North 4.6 mph - N/A   Clear
5:15 AM 32.0 °F 28.7 °F 11.1 °F 42% 30.03 in 10.0 mi NNE 3.5 mph - N/A   Clear
5:35 AM 31.6 °F - 11.7 °F 44% 30.03 in 10.0 mi Calm Calm - N/A   Clear
5:55 AM 31.3 °F - 13.1 °F 47% 30.04 in 10.0 mi Calm Calm - N/A   Clear
6:15 AM 30.9 °F - 14.9 °F 52% 30.05 in 10.0 mi Calm Calm - N/A   Clear
6:35 AM 30.7 °F - 14.9 °F 52% 30.06 in 10.0 mi Calm Calm - N/A   Clear
6:55 AM 30.0 °F - 16.2 °F 56% 30.07 in 10.0 mi Calm Calm - N/A   Clear
7:15 AM 30.0 °F - 15.8 °F 56% 30.08 in 10.0 mi Calm Calm - N/A   Clear
7:35 AM 29.8 °F - 15.6 °F 56% 30.08 in 10.0 mi Calm Calm - N/A   Clear
7:55 AM 29.5 °F - 16.0 °F 57% 30.09 in 10.0 mi Calm Calm - N/A   Clear
8:15 AM 30.6 °F - 16.7 °F 56% 30.10 in 10.0 mi Calm Calm - N/A   Clear
8:35 AM 31.6 °F - 16.7 °F 54% 30.11 in 10.0 mi Calm Calm - N/A   Clear
8:55 AM 32.9 °F 29.8 °F 15.3 °F 48% 30.11 in 10.0 mi North 3.5 mph - N/A   Clear
9:15 AM 33.8 °F - 13.3 °F 43% 30.11 in 10.0 mi Calm Calm - N/A   Clear
9:35 AM 35.4 °F - 13.8 °F 41% 30.11 in 10.0 mi Calm Calm - N/A   Clear
9:55 AM 36.1 °F - 13.1 °F 39% 30.11 in 10.0 mi Calm Calm - N/A   Clear
10:15 AM 36.5 °F 33.9 °F 12.6 °F 37% 30.11 in 10.0 mi West 3.5 mph - N/A   Clear
10:35 AM 37.0 °F 34.5 °F 13.3 °F 38% 30.10 in 10.0 mi NW 3.5 mph - N/A   Clear
10:55 AM 37.8 °F - 13.6 °F 37% 30.09 in 10.0 mi Calm Calm - N/A   Clear
11:15 AM 38.7 °F 36.3 °F 12.0 °F 34% 30.10 in 10.0 mi North 3.5 mph - N/A   Clear
11:35 AM 39.6 °F 37.4 °F 12.6 °F 33% 30.09 in 10.0 mi WNW 3.5 mph - N/A   Clear
11:55 AM 40.6 °F 38.6 °F 13.1 °F 33% 30.10 in 10.0 mi NE 3.5 mph - N/A   Clear
12:15 PM 43.7 °F 42.1 °F 14.7 °F 31% 30.09 in 10.0 mi WNW 3.5 mph - N/A   Clear
12:35 PM 43.7 °F 41.1 °F 14.2 °F 30% 30.09 in 10.0 mi WSW 4.6 mph - N/A   Clear
12:55 PM 43.3 °F 40.7 °F 15.3 °F 32% 30.08 in 10.0 mi SSW 4.6 mph - N/A   Clear
1:15 PM 45.1 °F 41.4 °F 15.4 °F 30% 30.07 in 10.0 mi West 6.9 mph - N/A   Clear
1:35 PM 45.5 °F 43.2 °F 14.9 °F 29% 30.06 in 10.0 mi SW 4.6 mph - N/A   Clear
1:55 PM 46.4 °F 44.3 °F 15.1 °F 28% 30.05 in 10.0 mi WSW 4.6 mph - N/A   Clear
2:15 PM 47.7 °F - 15.3 °F 27% 30.04 in 10.0 mi West 4.6 mph - N/A   Clear
2:35 PM 48.6 °F - 16.2 °F 28% 30.03 in 10.0 mi WSW 8.1 mph - N/A   Clear
2:55 PM 49.3 °F - 16.3 °F 27% 30.03 in 10.0 mi WSW 5.8 mph - N/A   Clear
3:15 PM 49.1 °F - 16.9 °F 28% 30.03 in 10.0 mi West 3.5 mph - N/A   Clear
3:35 PM 50.0 °F - 17.4 °F 28% 30.02 in 10.0 mi SW 3.5 mph - N/A   Clear
3:55 PM 50.7 °F - 17.8 °F 27% 30.01 in 10.0 mi WSW 6.9 mph - N/A   Clear
4:15 PM 51.1 °F - 17.4 °F 26% 30.01 in 10.0 mi SW 6.9 mph - N/A   Clear
4:35 PM 52.0 °F - 18.1 °F 26% 30.01 in 10.0 mi SW 6.9 mph - N/A   Clear
4:55 PM 50.7 °F - 17.2 °F 27% 30.01 in 10.0 mi WSW 4.6 mph - N/A   Clear
5:15 PM 51.1 °F - 18.1 °F 27% 30.01 in 10.0 mi West 5.8 mph - N/A   Clear
5:35 PM 51.4 °F - 19.8 °F 29% 30.01 in 10.0 mi West 4.6 mph - N/A   Clear
5:55 PM 50.9 °F - 18.9 °F 28% 30.01 in 10.0 mi SW 4.6 mph - N/A   Clear
6:15 PM 50.4 °F - 18.9 °F 29% 30.01 in 10.0 mi WSW 3.5 mph - N/A   Clear
6:35 PM 50.2 °F - 19.8 °F 30% 30.00 in 10.0 mi Calm Calm - N/A   Clear
6:55 PM 49.5 °F - 21.2 °F 33% 30.00 in 10.0 mi Calm Calm - N/A   Clear
7:15 PM 48.7 °F - 21.7 °F 35% 30.00 in 10.0 mi Calm Calm - N/A   Clear
7:35 PM 48.2 °F - 21.4 °F 35% 30.01 in 10.0 mi Calm Calm - N/A   Clear
7:55 PM 45.7 °F 42.7 °F 24.4 °F 43% 30.02 in 10.0 mi South 5.8 mph - N/A   Clear
8:15 PM 44.2 °F 42.7 °F 27.9 °F 53% 30.03 in 10.0 mi SSW 3.5 mph - N/A   Clear
8:35 PM 43.3 °F 41.7 °F 28.6 °F 56% 30.03 in 10.0 mi SSW 3.5 mph - N/A   Clear
8:55 PM 43.3 °F 41.7 °F 28.6 °F 56% 30.03 in 10.0 mi SSW 3.5 mph - N/A   Clear
9:15 PM 42.1 °F - 29.3 °F 61% 30.03 in 10.0 mi Calm Calm - N/A   Clear
9:35 PM 42.1 °F 40.2 °F 29.3 °F 61% 30.04 in 10.0 mi SSW 3.5 mph - N/A   Clear
9:55 PM 41.7 °F 39.8 °F 29.8 °F 63% 30.04 in 10.0 mi SSW 3.5 mph - N/A   Clear
10:15 PM 41.9 °F - 30.2 °F 63% 30.05 in 10.0 mi Calm Calm - N/A   Clear
10:35 PM 41.0 °F 39.0 °F 30.6 °F 66% 30.05 in 10.0 mi SSW 3.5 mph - N/A   Clear
11:15 PM 41.2 °F - 31.1 °F 67% 30.05 in 10.0 mi Calm Calm - N/A   Clear
11:35 PM 40.1 °F - 31.6 °F 72% 30.05 in 10.0 mi Calm Calm - N/A   Clear
11:55 PM 38.5 °F - 32.0 °F 78% 30.05 in 10.0 mi Calm Calm - N/A   Clear